Wind_Speed
29 33 39 40 42 48 47 33 34 33 33 37 41 40 33 30 33 33 36 37 32 34 35 35 35 38 38 40 41 38 37 37 34 33 40 37 39 37 36 35 24 22 21
31 36 40 44 46 46 46 36 40 43 37 41 43 41 39 37 37 36 36 38 37 34 32 35 38 40 40 44 38 33 34 32 34 34 39 39 35 33 32 30 32 31 23
32 34 38 40 43 46 45 47 50 49 47 45 44 46 37 31 38 37 36 37 38 33 35 39 40 44 41 40 28 26 28 28 28 31 31 31 31 34 34 35 37 40 30
33 36 39 43 46 49 51 53 52 51 49 46 41 45 42 31 35 43 40 39 39 35 37 40 41 46 43 39 28 25 28 29 27 30 26 37 31 28 28 30 24 34 32
36 38 42 46 47 50 50 48 47 45 44 43 45 46 44 37 34 42 40 37 38 35 38 41 41 46 41 31 24 23 29 28 27 26 22 26 24 28 27 29 30 32 31
43 43 47 49 48 49 49 46 47 43 43 44 41 43 44 45 38 39 42 36 38 38 40 39 36 31 17 15 18 22 25 25 26 25 22 26 29 22 25 26 31 34 33
49 49 50 52 48 48 46 43 44 44 43 42 43 42 43 43 39 40 41 40 41 42 39 34 27 29 23 22 24 24 24 21 23 27 29 27 28 28 29 29 25 25 27
52 53 54 54 49 47 45 42 40 43 45 44 46 47 47 47 45 46 46 45 44 42 40 34 30 29 26 24 28 30 25 23 25 29 29 30 31 30 28 26 23 22 26
54 54 54 53 48 45 43 44 46 44 48 47 47 49 47 48 48 49 48 47 46 44 41 40 34 37 34 31 33 34 28 26 26 31 33 33 33 31 28 27 26 23 21
55 52 52 50 49 46 46 48 51 50 49 48 46 48 48 49 47 49 50 48 47 45 46 44 38 41 39 38 37 37 30 29 29 32 36 34 34 33 29 27 27 24 22
49 49 48 48 46 44 47 48 50 48 46 46 46 45 48 48 50 50 51 53 51 47 48 47 45 42 44 44 43 39 36 32 32 31 33 33 32 30 29 26 25 26 29
48 48 46 41 41 42 45 46 45 45 45 45 46 46 48 49 49 49 53 53 53 51 51 49 47 44 42 48 46 45 42 41 34 30 31 30 32 28 29 27 28 29 28
49 45 40 39 40 41 42 44 43 42 42 44 45 45 46 47 48 46 50 48 50 54 50 49 47 47 42 46 49 48 43 39 38 36 33 30 31 31 28 27 28 28 25
45 41 39 38 40 42 43 43 42 40 38 36 35 36 40 38 39 42 38 44 52 52 46 45 49 47 44 44 46 47 39 33 33 32 31 31 31 31 29 27 27 28 29
38 38 37 38 41 43 43 43 42 39 33 32 35 34 35 36 42 46 53 46 47 44 45 45 43 42 44 48 45 43 41 32 29 27 30 31 31 32 30 30 30 31 33
38 37 38 41 41 41 42 42 39 34 31 32 30 29 34 37 41 43 41 44 43 38 41 42 44 39 43 55 45 54 36 33 32 33 27 32 33 33 32 33 33 34 36
37 37 40 41 42 41 39 38 37 32 28 33 36 38 34 33 30 31 28 30 33 37 38 40 45 47 44 55 49 43 28 28 26 26 30 33 34 35 35 36 37 37 36
36 37 38 38 38 37 35 35 32 26 29 33 31 28 27 21 26 20 18 26 23 33 40 49 51 51 45 51 51 33 30 26 24 29 35 34 35 37 38 39 38 37 36
35 35 33 32 34 36 36 36 36 29 28 29 28 28 28 24 24 23 21 23 29 29 40 53 54 60 56 43 30 31 26 25 30 33 34 34 36 39 40 39 38 35 34
32 30 32 34 34 33 33 33 32 28 27 24 21 19 20 21 23 25 26 27 33 35 37 37 35 32 30 25 23 19 23 28 31 33 35 37 38 38 36 35 34 34 36
27 28 30 29 26 25 26 23 21 22 22 16 18 21 26 23 26 25 26 35 38 38 34 28 22 14 11 12 17 24 30 32 31 32 36 36 35 34 35 37 37 38 40
28 27 23 20 21 19 15 14 12 14 14 16 13 16 16 15 14 15 16 17 15 13 11 7 2 8 16 21 23 26 28 28 28 30 32 33 33 34 36 37 38 39 41
24 21 21 20 17 11 10 14 17 20 18 16 12 10 10 10 8 5 3 3 1 5 6 8 12 15 18 21 22 24 26 27 28 29 31 32 33 34 35 36 36 36 36
18 18 16 14 12 10 11 15 14 12 11 9 7 5 4 3 2 2 3 4 5 7 9 11 13 15 18 19 20 22 24 26 26 27 27 29 30 31 31 32 32 32 33
16 14 9 11 9 5 11 11 9 7 6 6 6 6 6 6 7 7 7 7 9 9 10 11 13 14 15 16 19 20 21 22 23 25 26 26 28 29 30 31 32 32 33
8 4 6 9 12 12 11 10 9 8 7 7 8 10 10 12 10 10 9 9 8 9 10 11 14 17 17 17 17 18 18 19 21 23 25 25 26 28 30 31 33 35 36
Wind_Direction
300 296 297 302 303 297 305 312 317 306 299 280 280 283 282 284 285 282 285 291 297 298 296 296 300 298 299 300 295 263 268 277 284 280 284 279 274 269 273 276 275 266 261
295 292 291 291 292 296 298 301 299 293 286 279 281 280 281 284 279 278 284 291 294 294 293 301 298 304 301 302 298 260 258 272 288 286 284 279 271 267 265 267 270 274 261
290 291 292 290 292 295 296 294 294 292 288 283 284 288 287 283 280 279 280 285 287 288 294 298 305 303 306 304 282 266 270 275 284 287 280 278 271 266 270 265 274 269 259
289 289 288 285 283 283 284 283 284 282 279 278 280 283 284 274 275 278 282 282 286 284 293 301 303 303 295 292 265 271 278 278 285 287 285 246 260 259 258 266 278 270 261
287 285 283 281 281 280 282 281 279 279 277 276 279 280 282 274 273 277 282 286 286 288 297 306 308 305 274 266 267 271 280 281 281 277 283 276 248 252 249 256 252 254 260
289 286 285 286 288 285 284 283 281 279 277 275 275 276 277 278 276 272 275 286 286 291 298 303 317 316 269 269 283 288 283 286 277 271 265 274 275 264 278 274 269 263 266
287 287 286 289 289 286 282 280 279 277 273 271 275 276 274 274 273 271 272 276 281 288 290 290 298 303 306 296 300 299 296 290 291 284 281 274 274 277 271 273 273 276 272
286 287 288 288 289 285 282 278 275 276 277 275 275 276 274 273 276 276 275 276 277 280 283 283 283 287 290 296 292 295 301 302 299 293 286 275 274 274 270 265 270 271 265
285 287 287 288 286 282 280 283 284 283 281 280 277 277 275 277 277 276 277 277 276 275 276 278 268 279 284 287 290 294 294 299 303 295 285 283 279 271 268 267 270 271 270
286 287 286 287 286 282 282 282 283 283 280 277 277 276 277 276 273 274 274 274 274 273 270 270 267 264 274 284 288 289 291 293 294 295 287 280 277 274 272 271 274 274 273
285 285 290 289 286 281 280 282 284 284 280 279 277 277 276 273 271 270 270 272 269 268 267 266 266 261 261 268 277 276 280 287 291 293 286 280 278 275 271 272 274 277 280
288 287 288 285 282 282 284 287 287 284 282 280 280 279 276 273 270 266 266 263 262 261 260 262 263 261 259 261 266 270 279 282 283 283 285 277 272 267 270 274 277 280 285
286 291 286 288 289 289 290 290 289 285 283 281 279 277 274 270 269 263 263 253 258 258 256 258 259 256 256 257 264 270 275 275 275 282 285 273 269 269 270 276 278 282 285
288 285 286 292 296 297 297 298 296 291 288 284 281 278 276 272 260 261 250 252 256 254 254 252 255 258 262 253 259 268 263 261 267 271 276 271 270 272 275 274 275 280 284
286 286 293 298 299 300 301 299 298 299 294 292 284 281 283 270 263 260 256 252 243 243 249 254 250 249 259 254 259 258 261 258 256 265 271 269 271 272 270 272 276 280 284
288 293 299 298 298 300 300 297 297 299 292 284 285 277 277 277 269 270 265 249 240 245 251 253 253 247 260 246 251 260 242 238 247 251 263 268 267 267 270 273 275 278 280
296 303 302 303 302 303 300 298 299 294 284 281 281 285 281 283 269 267 259 255 252 250 250 258 253 251 257 253 251 242 238 250 255 260 263 266 265 267 271 273 276 277 280
302 305 305 305 305 304 303 301 303 294 284 278 283 279 276 278 269 256 280 259 247 245 256 254 253 250 244 244 242 237 239 243 250 257 257 260 267 269 273 275 276 277 279
304 305 305 306 307 307 306 306 308 305 291 283 281 283 281 276 270 283 269 275 257 245 244 238 242 235 236 227 222 233 240 248 253 257 261 266 270 271 273 276 277 276 276
303 303 305 307 309 310 312 313 310 307 295 289 284 290 274 273 261 266 281 255 227 224 219 218 213 212 217 218 225 238 253 254 254 259 265 267 270 272 273 275 277 278 277
298 300 305 309 309 311 319 328 320 298 293 277 264 261 262 268 267 266 254 234 216 209 210 208 203 202 202 221 243 250 254 259 264 270 271 272 272 273 275 278 277 277 279
299 303 305 306 311 317 325 334 354 22 50 80 98 100 99 127 134 122 104 97 96 98 97 92 158 241 250 255 259 263 267 271 273 272 272 273 273 273 274 276 278 281 281
301 301 301 308 310 304 321 326 352 347 347 13 35 31 25 29 34 53 51 60 152 242 239 239 243 254 260 264 269 271 273 273 273 274 275 276 278 279 279 279 280 281 283
296 300 304 297 292 295 321 320 326 330 340 346 353 2 1 4 331 338 313 279 257 261 266 270 271 273 275 276 278 278 278 280 280 279 279 281 282 281 282 284 285 286 285
294 296 291 310 302 289 322 320 310 307 307 310 315 320 323 318 319 309 300 293 288 285 282 281 280 281 283 285 284 283 281 281 283 285 287 288 289 290 290 289 289 290 289
305 295 271 288 305 315 315 312 305 299 305 305 309 312 316 318 318 313 312 305 303 305 297 292 288 287 291 289 284 281 284 291 293 295 296 297 296 294 293 293 292 291 290
Height
5902 5900 5898 5897 5897 5895 5893 5887 5889 5890 5889 5890 5888 5883 5881 5881 5879 5877 5874 5871 5871 5869 5866 5864 5863 5861 5859 5855 5852 5850 5851 5851 5853 5853 5845 5847 5850 5857 5851 5857 5856 5858 5861
5895 5893 5891 5889 5887 5885 5882 5882 5881 5882 5881 5880 5877 5876 5873 5871 5870 5869 5867 5864 5862 5861 5859 5857 5855 5852 5849 5843 5837 5839 5842 5844 5842 5841 5838 5839 5842 5843 5846 5848 5847 5850 5853
5889 5887 5884 5882 5879 5876 5875 5874 5872 5871 5871 5869 5866 5863 5863 5862 5860 5859 5857 5855 5854 5851 5849 5846 5843 5840 5838 5834 5831 5833 5834 5836 5835 5832 5831 5830 5832 5833 5837 5836 5839 5840 5846
5881 5879 5876 5873 5871 5869 5868 5866 5864 5862 5860 5858 5855 5852 5851 5854 5852 5848 5848 5845 5843 5842 5840 5837 5834 5829 5825 5825 5825 5825 5827 5827 5826 5826 5822 5826 5826 5823 5827 5830 5832 5834 5837
5873 5870 5868 5865 5863 5860 5858 5855 5852 5850 5849 5846 5843 5841 5839 5842 5842 5839 5837 5835 5834 5832 5830 5827 5825 5819 5814 5816 5819 5820 5820 5819 5818 5818 5815 5811 5815 5817 5819 5821 5822 5824 5825
5860 5858 5855 5852 5850 5847 5844 5842 5839 5838 5836 5834 5833 5830 5828 5829 5831 5830 5827 5826 5824 5825 5822 5819 5816 5809 5806 5810 5813 5815 5815 5814 5812 5813 5813 5812 5812 5812 5813 5814 5814 5816 5818
5848 5845 5841 5838 5837 5834 5831 5829 5827 5824 5823 5822 5820 5819 5817 5817 5818 5818 5818 5817 5816 5816 5815 5813 5811 5808 5808 5809 5809 5809 5808 5807 5808 5808 5807 5807 5807 5805 5807 5807 5807 5809 5810
5834 5831 5827 5825 5824 5821 5817 5815 5814 5812 5810 5810 5809 5808 5806 5804 5806 5804 5804 5806 5805 5805 5804 5804 5804 5801 5801 5801 5802 5802 5801 5801 5802 5802 5803 5802 5802 5802 5802 5802 5802 5803 5803
5821 5817 5813 5811 5809 5806 5805 5802 5800 5800 5797 5797 5795 5793 5793 5792 5792 5790 5791 5791 5792 5793 5793 5793 5795 5793 5793 5793 5794 5795 5794 5794 5795 5796 5798 5797 5798 5798 5797 5797 5798 5799 5798
5808 5804 5800 5797 5794 5793 5793 5790 5787 5784 5782 5780 5780 5779 5779 5779 5780 5777 5777 5778 5779 5781 5781 5782 5784 5785 5784 5784 5786 5787 5785 5787 5789 5790 5790 5790 5791 5791 5791 5790 5790 5792 5792
5795 5792 5789 5785 5783 5781 5780 5778 5774 5770 5768 5765 5764 5765 5764 5765 5764 5765 5765 5765 5766 5768 5768 5769 5771 5774 5775 5776 5777 5779 5779 5781 5780 5782 5783 5783 5784 5784 5783 5784 5784 5785 5784
5783 5781 5777 5773 5772 5770 5768 5764 5760 5756 5754 5752 5751 5751 5749 5749 5749 5750 5750 5750 5750 5753 5755 5756 5758 5760 5763 5765 5766 5768 5769 5772 5774 5775 5776 5775 5776 5778 5777 5775 5775 5777 5774
5771 5768 5764 5762 5760 5757 5754 5751 5747 5744 5741 5738 5737 5735 5735 5736 5734 5733 5733 5733 5735 5736 5743 5743 5745 5746 5751 5753 5755 5757 5761 5763 5765 5766 5767 5769 5768 5769 5769 5767 5765 5765 5764
5758 5756 5753 5749 5747 5744 5740 5735 5733 5730 5727 5725 5722 5721 5720 5719 5719 5721 5718 5719 5720 5724 5727 5730 5733 5736 5740 5742 5744 5750 5751 5752 5755 5757 5758 5759 5760 5759 5758 5758 5756 5755 5754
5746 5746 5741 5738 5736 5731 5728 5724 5719 5715 5713 5712 5710 5707 5705 5707 5708 5711 5709 5706 5701 5707 5715 5719 5724 5726 5730 5733 5735 5739 5741 5743 5746 5747 5749 5749 5750 5750 5748 5747 5745 5745 5743
5737 5734 5730 5727 5725 5722 5716 5712 5708 5705 5703 5701 5697 5696 5696 5695 5695 5694 5692 5692 5693 5697 5703 5708 5712 5717 5718 5722 5726 5729 5728 5732 5733 5735 5737 5740 5739 5739 5738 5737 5735 5734 5732
5728 5723 5720 5716 5712 5710 5707 5701 5697 5694 5693 5690 5687 5685 5684 5682 5680 5681 5681 5682 5685 5690 5693 5698 5701 5706 5711 5714 5717 5718 5719 5721 5724 5726 5728 5728 5728 5729 5727 5727 5725 5723 5721
5718 5715 5712 5707 5703 5698 5694 5690 5687 5685 5681 5678 5676 5673 5673 5671 5672 5672 5672 5673 5675 5681 5683 5682 5688 5694 5698 5702 5705 5708 5710 5711 5714 5717 5717 5717 5717 5717 5716 5715 5713 5711 5710
5710 5707 5703 5699 5694 5689 5684 5680 5676 5674 5672 5668 5665 5663 5663 5663 5665 5665 5665 5664 5666 5669 5671 5673 5675 5679 5685 5690 5694 5697 5701 5703 5706 5708 5708 5707 5706 5706 5705 5703 5702 5700 5699
5703 5700 5696 5691 5688 5683 5678 5673 5669 5666 5661 5659 5657 5655 5655 5656 5657 5658 5658 5659 5660 5662 5666 5670 5672 5675 5680 5682 5686 5691 5694 5696 5697 5697 5697 5696 5695 5694 5693 5693 5690 5688 5688
5696 5693 5690 5686 5683 5678 5673 5669 5664 5659 5655 5653 5652 5652 5652 5652 5653 5653 5655 5656 5657 5658 5661 5663 5666 5670 5674 5678 5681 5684 5686 5688 5687 5686 5686 5686 5685 5684 5683 5682 5680 5679 5678
5689 5687 5684 5682 5679 5676 5672 5669 5665 5660 5656 5653 5651 5651 5650 5650 5651 5652 5653 5654 5655 5657 5659 5662 5666 5670 5674 5676 5677 5678 5678 5678 5677 5677 5677 5676 5674 5673 5672 5671 5670 5668 5667
5683 5681 5679 5677 5675 5673 5671 5669 5666 5664 5661 5657 5656 5655 5655 5654 5655 5656 5657 5657 5658 5662 5662 5664 5666 5667 5669 5670 5670 5671 5671 5671 5669 5668 5667 5666 5665 5664 5662 5660 5658 5656 5653
5678 5677 5675 5674 5672 5670 5670 5669 5667 5666 5664 5662 5661 5660 5659 5658 5658 5657 5658 5658 5659 5660 5661 5662 5663 5663 5664 5664 5664 5664 5663 5662 5662 5661 5659 5658 5656 5655 5651 5649 5647 5644 5642
5674 5672 5672 5672 5670 5670 5669 5668 5667 5665 5664 5664 5663 5661 5660 5659 5658 5657 5657 5657 5657 5658 5659 5659 5660 5660 5659 5659 5657 5657 5657 5656 5654 5653 5652 5650 5647 5644 5641 5639 5636 5633 5631
5670 5670 5670 5670 5670 5669 5668 5667 5666 5665 5664 5664 5662 5660 5659 5658 5657 5656 5656 5656 5656 5656 5656 5656 5655 5655 5654 5653 5652 5650 5649 5648 5646 5644 5642 5639 5637 5634 5632 5629 5626 5624 5621